This is the latest recevied weather packets stored in our database for station/object IW7DVM-13. If no packets are shown the sender has not sent any weather packets the latest 10 day(s).
| Time | Temp. | Humidity | Pressure | Rain* | Wind** | Luminosity | Snow |
|---|---|---|---|---|---|---|---|
| 1777905903 | 21.11° C | 59% | 1012.3 hPa | 0 mm | - | - | - |
| 1777905603 | 21.67° C | 58% | 1012.2 hPa | 0 mm | - | - | - |
| 1777905303 | 21.67° C | 57% | 1012.2 hPa | 0 mm | - | - | - |
| 1777905003 | 21.67° C | 54% | 1012.2 hPa | 0 mm | - | - | - |
| 1777904703 | 21.67° C | 55% | 1012.2 hPa | 0 mm | - | - | - |
| 1777904403 | 21.67° C | 55% | 1012.3 hPa | 0 mm | - | - | - |
| 1777904103 | 21.67° C | 56% | 1012.3 hPa | 0 mm | - | - | - |
| 1777903803 | 21.67° C | 57% | 1012.2 hPa | 0 mm | - | - | - |
| 1777903503 | 21.67° C | 57% | 1012.2 hPa | 0 mm | - | - | - |
| 1777903203 | 21.67° C | 55% | 1012.3 hPa | 0 mm | - | - | - |
| 1777902903 | 21.67° C | 57% | 1012.3 hPa | 0 mm | - | - | - |
| 1777902603 | 21.67° C | 57% | 1012.3 hPa | 0 mm | - | - | - |
| 1777902303 | 21.67° C | 56% | 1012.3 hPa | 0 mm | - | - | - |
| 1777902003 | 21.67° C | 57% | 1012.3 hPa | 0 mm | - | - | - |
| 1777901703 | 21.67° C | 59% | 1012.4 hPa | 0 mm | - | - | - |
| 1777901403 | 22.22° C | 58% | 1012.4 hPa | 0 mm | - | - | - |
| 1777901103 | 21.67° C | 57% | 1012.3 hPa | 0 mm | - | - | - |
| 1777900803 | 22.78° C | 53% | 1012.3 hPa | 0 mm | - | - | - |
| 1777900503 | 22.22° C | 52% | 1012.3 hPa | 0 mm | - | - | - |
| 1777900203 | 22.22° C | 50% | 1012.4 hPa | 0 mm | - | - | - |
| 1777899903 | 22.22° C | 49% | 1012.4 hPa | 0 mm | - | - | - |
| 1777899603 | 22.22° C | 49% | 1012.4 hPa | 0 mm | - | - | - |
| 1777899303 | 22.22° C | 47% | 1012.5 hPa | 0 mm | - | - | - |
| 1777899003 | 21.67° C | 49% | 1012.5 hPa | 0 mm | - | - | - |
| 1777898703 | 22.22° C | 50% | 1012.6 hPa | 0 mm | - | - | - |
* Rain latest hour (hover to see other rain measurements)
** Current wind speed in m/s (hover to see current wind gust speed)